Weather Roundup
Issued by NWS Springfield, MO

Home | Current Version | Previous Version | Text Only | Print | Product List | Glossary On
Versions: 1 2 3 4 5 6 7 8 9 10 11 12 13 14 15 16 17 18 19 20 21 22 23 24 25 26 27 28 29 30 31 32 33 34 35 36 37 38 39 40 41 42 43 44 45 46 47 48 49 50
000
NZUS99 KSGF 230657
HRRSGF

HOURLY WEATHER
NATIONAL WEATHER SERVICE SPRINGFIELD MO
200 AM CDT SAT JUL 23 2016

......SGF CWA......

CITY           SKY/WX    TMP DP  RH WIND       PRES   REMARKS
SPRINGFIELD    CLEAR     80  74  81 SE7       30.01F
JOPLIN         CLEAR     80  73  79 SE7       29.99S
WEST PLAINS    PTCLDY    79  73  82 CALM      30.04F
ROLLA          PTCLDY    77  73  87 S5        30.00F

......SURROUNDING SGF CWA......

CITY           SKY/WX    TMP DP  RH WIND       PRES   REMARKS
CHANUTE        CLEAR     78  73  84 MISG      29.97S
PARSONS        CLEAR     79  71  76 CALM      29.98R
COFFEYVILLE    CLEAR     79  70  74 SE3       29.96S
EMPORIA        CLEAR     80  71  74 SE9       29.96S
HARRISON AR    CLEAR     77  74  90 CALM      30.03F

......KANSAS AND MISSOURI......

CITY           SKY/WX    TMP DP  RH WIND       PRES   REMARKS
KANSAS CTY INT PTCLDY    78  73  84 S9        29.97S
SEDALIA        CLEAR     79  75  87 S6        30.00S
ST JOSEPH      CLOUDY    83  74  74 S5        29.95S
ST LOUIS       MOCLDY    80  73  79 CALM      30.00S
WICHITA        CLEAR     84  67  56 S12       29.94S
TOPEKA         CLOUDY    83  71  67 SE6       29.94S
OLATHE         CLOUDY    78  72  81 S6        29.98F

......TENNESSEE......

CITY           SKY/WX    TMP DP  RH WIND       PRES   REMARKS
MEMPHIS        NOT AVBL
NASHVILLE      MOCLDY    76  71  85 CALM      30.01S

......ARKANSAS.......

CITY           SKY/WX    TMP DP  RH WIND       PRES   REMARKS
FAYETTEVILLE   CLEAR     74  74 100 CALM      30.02F
FT SMITH       CLEAR     82  77  84 NE6       29.95F HX  90
LITTLE ROCK    CLOUDY    82  76  81 SW3       29.97F

......OKLAHOMA.......

CITY           SKY/WX    TMP DP  RH WIND       PRES   REMARKS
TULSA          CLEAR     86  72  62 S7        29.94S HX  92
PONCA CITY     CLEAR     84  69  60 S8        29.95R
MCALESTER      PTCLDY    78  72  81 CALM      29.97F
OKLAHOMA CITY  CLEAR     75  69  81 S5        29.98S

......IOWA............

CITY           SKY/WX    TMP DP  RH WIND       PRES   REMARKS
DES MOINES     NOT AVBL
QUAD CITIES    CLEAR     77  74  90 CALM      29.98S

......ILLINOIS........

CITY           SKY/WX    TMP DP  RH WIND       PRES   REMARKS
QUINCY         NOT AVBL
CHICAGO        MOCLDY    81  76  84 W6        30.00R




USA.gov is the U.S. government's official web portal to all federal, state and local government web resources and services.